星链-30347 (STARLINK-30347 )

导读

STARLINK-30347是美国SpaceX公司星链(Starlink)项目的近地轨道通信卫星,于2023年8月27日发射升空,属于星链星座组网批量生产卫星。卫星采用平板设计,配备氪工质霍尔推进器与自主避撞系统,依托Ku/Ka波段通信技术,为全球提供低延迟高速互联网服务,覆盖偏远地区,使用寿命约5-7年,退役后主动离轨焚毁,保障太空环境安全。

基本信息
目录编号:
57699
目录名称:
STARLINK-30347
国际标识:
2023-129B
轨道中心:
EARTH
卫星名称:
星链-30347
卫星全名:
星链-30347 (STARLINK-30347 )
卫星状态:
在轨 (已飞行1026 天)
发射日期:
2023-08-27 UTC
国别 :
美国 (US)
星等 :
--
轨道信息
数据来源 国际轨道数据
星历时间: 2026-06-14T22:05:46+0800
3天前
查看轨道信息
半长轴: 6861.175km
偏心率: 0.0001813
轨道倾角: 43.004°
近地点辐角 269.164°
升交点赤经 279.443°
平近点角 90.901°
近地点: 481.794km
远地点: 484.282km
周期: 94.267分钟
每日圈数: 15.275838
详细信息
固有亮度:
5
最大亮度:
0.3
卫星平台:
Starlink v2.0 mini
覆盖范围:
全球
运营商:
太空探索技术公司
运营商所在国:
美国
制造商(研发单位):
太空探索技术公司
制造商所在国:
美国
使用方式:
暂无
卫星简介
星链(Starlink)计划是由太空探索技术公司(SpaceX)提出的一个巨型低轨卫星互联网星座项目,计划在2019年至2024年间在太空搭建由约1.2万颗卫星组成的“星链”网络,其中1584颗将部署在地球上空550千米处的近地轨道,并从2020年开始工作。该卫星仍在工作。
2D轨道图
3D轨道图
轨道高度分析图
轨道倾角分析图
轨道综合分析图
查看轨道综合分析图